TVF8024 LFBO-GOBD

Flight info

Callsign TVF8024
Flight time 4h 48m
Altitude 31000
Route GAUDE DCT TIVLI N869 ELSAP/N0449F330 DCT ZAR DCT EXEMU DCT PISUS DCT EDIMU DCT ADUXO DCT NUSGO DCT OBIBO DCT NASOS DCT ANZAN DCT BLN DCT MGA DCT PIMOS DCT GALTO UN869 PELAX UB11 MABAP UN869 ADM UR975 DIDAN/N0452F340 UR975 ZRT DCT MINBA DCT SEPEL UR975 SAKLI SAKLI1A
Aircraft B738/M-SDE2E3FGHIRWXY/LB1

Departure

Time 2026-04-25 13:12
Airport Toulouse-Blagnac Airport (LFBO)

Arrival

Time 2026-04-25 18:01
Airport Blaise Diagne International Airport (GOBD)
Time Latitude Longitude Altitude Speed Heading
2026-04-25 12:26 43.63191 1.36941 487 ft 0 kts 105°
2026-04-25 12:53 43.63191 1.36940 493 ft 0 kts 105°
2026-04-25 13:02 43.63194 1.36927 484 ft 4 kts 105°
2026-04-25 13:02 43.63201 1.36891 488 ft 4 kts 104°
2026-04-25 13:03 43.63206 1.36863 482 ft 4 kts 99°
2026-04-25 13:03 43.63210 1.36826 484 ft 4 kts 103°
2026-04-25 13:03 43.63219 1.36799 485 ft 2 kts 143°
2026-04-25 13:03 43.63234 1.36784 482 ft 0 kts 143°
2026-04-25 13:06 43.63233 1.36785 482 ft 1 kts 143°
2026-04-25 13:06 43.63220 1.36796 485 ft 4 kts 146°
2026-04-25 13:06 43.63183 1.36822 489 ft 8 kts 157°
2026-04-25 13:06 43.63127 1.36828 483 ft 8 kts 210°
2026-04-25 13:07 43.63081 1.36785 490 ft 8 kts 192°
2026-04-25 13:07 43.63026 1.36814 493 ft 10 kts 143°
2026-04-25 13:07 43.62961 1.36881 485 ft 13 kts 143°
2026-04-25 13:07 43.62887 1.36958 486 ft 14 kts 143°
2026-04-25 13:08 43.62805 1.37044 485 ft 16 kts 142°
2026-04-25 13:08 43.62703 1.37151 485 ft 20 kts 143°
2026-04-25 13:08 43.62584 1.37276 491 ft 23 kts 144°
2026-04-25 13:08 43.62456 1.37406 486 ft 23 kts 142°
2026-04-25 13:09 43.62333 1.37535 493 ft 22 kts 143°
2026-04-25 13:09 43.62212 1.37659 485 ft 21 kts 143°
2026-04-25 13:09 43.62096 1.37779 491 ft 21 kts 142°
2026-04-25 13:09 43.61983 1.37897 493 ft 20 kts 142°
2026-04-25 13:10 43.61874 1.38010 490 ft 19 kts 142°
2026-04-25 13:10 43.61769 1.38121 489 ft 17 kts 143°
2026-04-25 13:10 43.61682 1.38174 493 ft 12 kts 184°
2026-04-25 13:10 43.61620 1.38103 493 ft 12 kts 233°
2026-04-25 13:11 43.61590 1.38015 490 ft 8 kts 282°
2026-04-25 13:11 43.61619 1.37967 485 ft 6 kts 322°
2026-04-25 13:11 43.61645 1.37938 493 ft 10 kts 322°
2026-04-25 13:11 43.62022 1.37546 490 ft 94 kts 323°
2026-04-25 13:12 43.62439 1.37113 490 ft 132 kts 323°
2026-04-25 13:12 43.63308 1.36205 518 ft 178 kts 323°
2026-04-25 13:12 43.64321 1.35170 1137 ft 182 kts 321°
2026-04-25 13:12 43.65003 1.34450 1587 ft 188 kts 321°
2026-04-25 13:13 43.66356 1.32886 2608 ft 186 kts 319°
2026-04-25 13:13 43.67344 1.31746 3331 ft 187 kts 319°
2026-04-25 13:13 43.68370 1.30589 3868 ft 194 kts 317°
2026-04-25 13:13 43.69233 1.29088 4167 ft 211 kts 294°
2026-04-25 13:14 43.69365 1.27032 4354 ft 226 kts 256°
2026-04-25 13:14 43.68621 1.25037 4650 ft 243 kts 230°
2026-04-25 13:14 43.67240 1.23661 5217 ft 249 kts 200°
2026-04-25 13:14 43.65531 1.23363 5883 ft 253 kts 175°
2026-04-25 13:15 43.63716 1.23681 6200 ft 272 kts 172°
2026-04-25 13:15 43.61812 1.23879 6755 ft 279 kts 189°
2026-04-25 13:15 43.60009 1.22934 7421 ft 279 kts 213°
2026-04-25 13:15 43.58409 1.21407 8135 ft 280 kts 217°
2026-04-25 13:16 43.56830 1.19813 8821 ft 283 kts 217°
2026-04-25 13:16 43.55245 1.18200 9515 ft 285 kts 217°
2026-04-25 13:16 43.53644 1.16576 10204 ft 287 kts 217°
2026-04-25 13:16 43.52009 1.14926 10614 ft 299 kts 217°
2026-04-25 13:17 43.50282 1.13192 10916 ft 313 kts 217°
2026-04-25 13:17 43.48505 1.11415 11468 ft 318 kts 217°
2026-04-25 13:17 43.46708 1.09624 12132 ft 320 kts 217°
2026-04-25 13:17 43.44898 1.07822 12750 ft 323 kts 217°
2026-04-25 13:18 43.43073 1.06009 13374 ft 326 kts 217°
2026-04-25 13:18 43.41228 1.04176 14008 ft 329 kts 218°
2026-04-25 13:18 43.39366 1.02329 14568 ft 331 kts 218°
2026-04-25 13:18 43.37488 1.00470 15143 ft 333 kts 217°
2026-04-25 13:19 43.35628 0.98627 15702 ft 336 kts 217°
2026-04-25 13:19 43.33725 0.96743 16266 ft 338 kts 217°
2026-04-25 13:19 43.31808 0.94847 16824 ft 341 kts 217°
2026-04-25 13:19 43.30503 0.93558 17201 ft 343 kts 217°
2026-04-25 13:20 43.27923 0.91014 17935 ft 346 kts 217°
2026-04-25 13:20 43.25961 0.89083 18481 ft 349 kts 217°
2026-04-25 13:20 43.23984 0.87140 18955 ft 351 kts 217°
2026-04-25 13:20 43.21996 0.85188 19438 ft 353 kts 217°
2026-04-25 13:21 43.19989 0.83218 19898 ft 356 kts 217°
2026-04-25 13:21 43.17968 0.81237 20362 ft 359 kts 217°
2026-04-25 13:21 43.15901 0.79212 20494 ft 372 kts 217°
2026-04-25 13:21 43.13759 0.77115 20600 ft 385 kts 216°
2026-04-25 13:22 43.11545 0.74952 20684 ft 398 kts 216°
2026-04-25 13:22 43.09260 0.72722 20819 ft 408 kts 216°
2026-04-25 13:22 43.06931 0.70450 21121 ft 413 kts 216°
2026-04-25 13:23 43.02245 0.65851 21985 ft 416 kts 220°
2026-04-25 13:23 43.00321 0.62920 22335 ft 417 kts 239°
2026-04-25 13:23 42.99117 0.59309 22714 ft 419 kts 254°
2026-04-25 13:23 42.98389 0.55445 23093 ft 421 kts 256°
2026-04-25 13:24 42.97726 0.51543 23452 ft 424 kts 257°
2026-04-25 13:24 42.97069 0.47600 23764 ft 427 kts 257°
2026-04-25 13:24 42.96401 0.43637 24110 ft 428 kts 257°
2026-04-25 13:24 42.95722 0.39688 24482 ft 428 kts 257°
2026-04-25 13:25 42.95027 0.35723 24776 ft 431 kts 256°
2026-04-25 13:25 42.94318 0.31734 25073 ft 433 kts 256°
2026-04-25 13:25 42.93601 0.27736 25420 ft 434 kts 256°
2026-04-25 13:25 42.92881 0.23735 25721 ft 435 kts 256°
2026-04-25 13:26 42.92155 0.19715 26003 ft 437 kts 256°
2026-04-25 13:26 42.91425 0.15683 26286 ft 439 kts 256°
2026-04-25 13:26 42.90690 0.11627 26565 ft 441 kts 256°
2026-04-25 13:26 42.89952 0.07565 26836 ft 442 kts 256°
2026-04-25 13:27 42.89210 0.03488 27113 ft 444 kts 256°
2026-04-25 13:27 42.88463 -0.00607 27390 ft 445 kts 256°
2026-04-25 13:27 42.87713 -0.04713 27657 ft 447 kts 255°
2026-04-25 13:27 42.86958 -0.08827 27889 ft 449 kts 255°
2026-04-25 13:28 42.86199 -0.12961 28141 ft 450 kts 255°
2026-04-25 13:28 42.85695 -0.15704 28343 ft 450 kts 255°
2026-04-25 13:28 42.84679 -0.21214 28892 ft 447 kts 255°
2026-04-25 13:28 42.83922 -0.25313 29297 ft 445 kts 255°
2026-04-25 13:29 42.83166 -0.29393 29619 ft 444 kts 255°
2026-04-25 13:29 42.82409 -0.33477 29923 ft 444 kts 255°
2026-04-25 13:29 42.81629 -0.37537 30251 ft 443 kts 251°
2026-04-25 13:30 42.78138 -0.44265 30767 ft 440 kts 219°
2026-04-25 13:30 42.75588 -0.46445 30996 ft 440 kts 204°
2026-04-25 13:30 42.72754 -0.48006 31263 ft 439 kts 202°
2026-04-25 13:31 42.67020 -0.50916 31730 ft 439 kts 201°
2026-04-25 13:31 42.64162 -0.52360 32002 ft 438 kts 201°
2026-04-25 13:31 42.61313 -0.53815 32274 ft 438 kts 201°
2026-04-25 13:31 42.58465 -0.55287 32503 ft 438 kts 202°
2026-04-25 13:32 42.55621 -0.56766 32724 ft 437 kts 202°
2026-04-25 13:32 42.52789 -0.58244 33005 ft 435 kts 202°
2026-04-25 13:32 42.49972 -0.59717 33103 ft 435 kts 202°
2026-04-25 13:33 42.44289 -0.62684 33104 ft 441 kts 202°
2026-04-25 13:33 42.38531 -0.65681 33105 ft 445 kts 201°
2026-04-25 13:34 42.32720 -0.68699 33107 ft 449 kts 201°
2026-04-25 13:34 42.26879 -0.71726 33086 ft 447 kts 201°
2026-04-25 13:35 42.21128 -0.74700 33091 ft 440 kts 201°
2026-04-25 13:35 42.15409 -0.77652 33109 ft 440 kts 201°
2026-04-25 13:36 42.09687 -0.80599 33087 ft 440 kts 201°
2026-04-25 13:36 42.03974 -0.83537 33090 ft 439 kts 201°
2026-04-25 13:37 41.98270 -0.86471 33086 ft 439 kts 201°
2026-04-25 13:37 41.92557 -0.89415 33086 ft 439 kts 201°
2026-04-25 13:38 41.86841 -0.92353 33088 ft 440 kts 201°
2026-04-25 13:38 41.81122 -0.95283 33101 ft 441 kts 201°
2026-04-25 13:39 41.75384 -0.98216 33094 ft 442 kts 201°
2026-04-25 13:39 41.69634 -1.01151 33110 ft 443 kts 201°
2026-04-25 13:40 41.64033 -1.04555 33092 ft 444 kts 213°
2026-04-25 13:40 41.58958 -1.09276 33099 ft 445 kts 215°
2026-04-25 13:41 41.53889 -1.14031 33105 ft 446 kts 214°
2026-04-25 13:41 41.48780 -1.18742 33086 ft 446 kts 214°
2026-04-25 13:42 41.43658 -1.23424 33100 ft 446 kts 213°
2026-04-25 13:42 41.38548 -1.28084 33103 ft 444 kts 213°
2026-04-25 13:43 41.33488 -1.32690 33103 ft 443 kts 213°
2026-04-25 13:43 41.28405 -1.37310 33109 ft 442 kts 213°
2026-04-25 13:44 41.23341 -1.41917 33104 ft 441 kts 213°
2026-04-25 13:44 41.18287 -1.46516 33105 ft 440 kts 213°
2026-04-25 13:45 41.13224 -1.51090 33111 ft 440 kts 213°
2026-04-25 13:45 41.08154 -1.55653 33114 ft 440 kts 213°
2026-04-25 13:46 41.03081 -1.60212 33110 ft 441 kts 213°
2026-04-25 13:46 40.98009 -1.64762 33111 ft 442 kts 213°
2026-04-25 13:47 40.92908 -1.69329 33113 ft 442 kts 213°
2026-04-25 13:47 40.87808 -1.73886 33110 ft 443 kts 212°
2026-04-25 13:48 40.82698 -1.78443 33103 ft 444 kts 213°
2026-04-25 13:48 40.77577 -1.83004 33112 ft 444 kts 213°
2026-04-25 13:49 40.72452 -1.87567 33118 ft 445 kts 213°
2026-04-25 13:49 40.67318 -1.92134 33111 ft 445 kts 213°
2026-04-25 13:50 40.62212 -1.96662 33109 ft 440 kts 213°
2026-04-25 13:50 40.57204 -2.01098 33089 ft 434 kts 213°
2026-04-25 13:51 40.52221 -2.05505 33079 ft 430 kts 213°
2026-04-25 13:51 40.47254 -2.09904 33087 ft 433 kts 213°
2026-04-25 13:52 40.42224 -2.14366 33084 ft 440 kts 213°
2026-04-25 13:52 40.37110 -2.18882 33087 ft 446 kts 213°
2026-04-25 13:53 40.31981 -2.23385 33064 ft 441 kts 213°
2026-04-25 13:53 40.26916 -2.27821 33070 ft 436 kts 213°
2026-04-25 13:54 40.21881 -2.32220 33088 ft 435 kts 212°
2026-04-25 13:54 40.16845 -2.36615 33071 ft 435 kts 212°
2026-04-25 13:55 40.11811 -2.41002 33087 ft 435 kts 212°
2026-04-25 13:55 40.06762 -2.45393 33090 ft 437 kts 212°
2026-04-25 13:56 40.01689 -2.49797 33083 ft 439 kts 212°
2026-04-25 13:56 39.96592 -2.54210 33092 ft 440 kts 212°
2026-04-25 13:57 39.91478 -2.58633 33085 ft 442 kts 212°
2026-04-25 13:57 39.86385 -2.63030 33092 ft 443 kts 212°
2026-04-25 13:58 39.81249 -2.67457 33097 ft 443 kts 212°
2026-04-25 13:58 39.76105 -2.71880 33097 ft 443 kts 212°
2026-04-25 13:59 39.70962 -2.76292 33097 ft 443 kts 212°
2026-04-25 13:59 39.65811 -2.80710 33092 ft 443 kts 212°
2026-04-25 14:00 39.60662 -2.85119 33094 ft 443 kts 212°
2026-04-25 14:00 39.55514 -2.89517 33096 ft 443 kts 212°
2026-04-25 14:01 39.51200 -2.93196 33089 ft 443 kts 212°
2026-04-25 14:01 39.46050 -2.97579 33091 ft 443 kts 212°
2026-04-25 14:02 39.40899 -3.01943 33076 ft 442 kts 210°
2026-04-25 14:02 39.35340 -3.05180 33098 ft 438 kts 198°
2026-04-25 14:03 39.29615 -3.07865 33088 ft 438 kts 198°
2026-04-25 14:03 39.23933 -3.10564 33074 ft 438 kts 199°
2026-04-25 14:04 39.18229 -3.13316 33079 ft 438 kts 199°
2026-04-25 14:04 39.12529 -3.16072 33075 ft 438 kts 199°
2026-04-25 14:05 39.06820 -3.18824 33079 ft 438 kts 199°
2026-04-25 14:05 39.01104 -3.21574 33070 ft 439 kts 199°
2026-04-25 14:06 38.95384 -3.24332 33073 ft 440 kts 199°
2026-04-25 14:06 38.89649 -3.27102 33073 ft 441 kts 199°
2026-04-25 14:07 38.83893 -3.29875 33080 ft 442 kts 199°
2026-04-25 14:07 38.78124 -3.32644 33071 ft 444 kts 198°
2026-04-25 14:08 38.72331 -3.35421 33069 ft 445 kts 199°
2026-04-25 14:08 38.66533 -3.38197 33071 ft 445 kts 199°
2026-04-25 14:09 38.60728 -3.40971 33078 ft 445 kts 198°
2026-04-25 14:09 38.54918 -3.43742 33076 ft 446 kts 198°
2026-04-25 14:10 38.49111 -3.46506 33072 ft 446 kts 198°
2026-04-25 14:10 38.43301 -3.49267 33060 ft 445 kts 198°
2026-04-25 14:11 38.37499 -3.52020 33065 ft 444 kts 198°
2026-04-25 14:11 38.31710 -3.54761 33063 ft 443 kts 198°
2026-04-25 14:12 38.25931 -3.57492 33056 ft 442 kts 198°
2026-04-25 14:12 38.20166 -3.60212 33059 ft 441 kts 198°
2026-04-25 14:13 38.14420 -3.62951 33066 ft 442 kts 199°
2026-04-25 14:13 38.08770 -3.66076 33058 ft 443 kts 201°
2026-04-25 14:14 38.03157 -3.69332 33055 ft 444 kts 201°
2026-04-25 14:14 37.97521 -3.72565 33058 ft 445 kts 201°
2026-04-25 14:15 37.91867 -3.75768 33056 ft 446 kts 201°
2026-04-25 14:15 37.86194 -3.78962 33068 ft 447 kts 201°
2026-04-25 14:16 37.80502 -3.82159 33071 ft 448 kts 201°
2026-04-25 14:16 37.74829 -3.85341 33071 ft 449 kts 201°
2026-04-25 14:17 37.69113 -3.88543 33067 ft 450 kts 201°
2026-04-25 14:17 37.63395 -3.91742 33073 ft 450 kts 201°
2026-04-25 14:18 37.57676 -3.94934 33072 ft 449 kts 201°
2026-04-25 14:18 37.51957 -3.98122 33078 ft 449 kts 201°
2026-04-25 14:19 37.46238 -4.01304 33065 ft 449 kts 201°
2026-04-25 14:19 37.40523 -4.04478 33076 ft 449 kts 202°
2026-04-25 14:20 37.34809 -4.07647 33072 ft 449 kts 202°
2026-04-25 14:20 37.29093 -4.10811 33073 ft 449 kts 201°
2026-04-25 14:21 37.23366 -4.13977 33076 ft 450 kts 201°
2026-04-25 14:21 37.17636 -4.17137 33080 ft 450 kts 201°
2026-04-25 14:22 37.11899 -4.20297 33083 ft 451 kts 202°
2026-04-25 14:22 37.06165 -4.23451 33087 ft 450 kts 202°
2026-04-25 14:23 37.00421 -4.26603 33087 ft 451 kts 202°
2026-04-25 14:23 36.94671 -4.29753 33090 ft 452 kts 202°
2026-04-25 14:24 36.88905 -4.32906 33107 ft 452 kts 202°
2026-04-25 14:24 36.83168 -4.36040 33100 ft 453 kts 202°
2026-04-25 14:25 36.77625 -4.39773 33107 ft 454 kts 211°
2026-04-25 14:25 36.72302 -4.44111 33104 ft 453 kts 212°
2026-04-25 14:26 36.67028 -4.48398 33101 ft 453 kts 212°
2026-04-25 14:26 36.61720 -4.52630 33105 ft 452 kts 212°
2026-04-25 14:27 36.56407 -4.56829 33110 ft 453 kts 212°
2026-04-25 14:27 36.51079 -4.61026 33082 ft 453 kts 213°
2026-04-25 14:28 36.45793 -4.65190 33083 ft 453 kts 213°
2026-04-25 14:28 36.40470 -4.69376 33093 ft 453 kts 213°
2026-04-25 14:29 36.35147 -4.73553 33085 ft 453 kts 213°
2026-04-25 14:29 36.29808 -4.77738 33083 ft 454 kts 213°
2026-04-25 14:30 36.24469 -4.81915 33077 ft 454 kts 213°
2026-04-25 14:30 36.16436 -4.88186 33075 ft 455 kts 213°
2026-04-25 14:31 36.11090 -4.92389 33076 ft 455 kts 215°
2026-04-25 14:31 36.05775 -4.96626 33050 ft 456 kts 216°
2026-04-25 14:32 36.00435 -5.00871 33068 ft 456 kts 216°
2026-04-25 14:32 35.95087 -5.05105 33078 ft 457 kts 216°
2026-04-25 14:33 35.89715 -5.09347 33070 ft 459 kts 216°
2026-04-25 14:33 35.84331 -5.13593 33059 ft 460 kts 216°
2026-04-25 14:34 35.79099 -5.18114 33047 ft 459 kts 220°
2026-04-25 14:34 35.74020 -5.22870 33046 ft 459 kts 220°
2026-04-25 14:35 35.68937 -5.27626 33045 ft 459 kts 220°
2026-04-25 14:35 35.63842 -5.32337 33041 ft 458 kts 220°
2026-04-25 14:36 35.58739 -5.37021 33048 ft 457 kts 221°
2026-04-25 14:36 35.53680 -5.41651 33056 ft 456 kts 221°
2026-04-25 14:37 35.48591 -5.46304 33039 ft 456 kts 221°
2026-04-25 14:37 35.43508 -5.50944 33028 ft 455 kts 221°
2026-04-25 14:38 35.38426 -5.55576 33011 ft 455 kts 221°
2026-04-25 14:38 35.33350 -5.60193 32992 ft 454 kts 221°
2026-04-25 14:39 35.28285 -5.64792 32971 ft 453 kts 221°
2026-04-25 14:39 35.23233 -5.69377 32974 ft 451 kts 221°
2026-04-25 14:40 35.18193 -5.73944 32966 ft 451 kts 222°
2026-04-25 14:40 35.13154 -5.78501 32971 ft 450 kts 222°
2026-04-25 14:41 35.08118 -5.83047 32952 ft 450 kts 222°
2026-04-25 14:41 35.03089 -5.87579 32958 ft 449 kts 222°
2026-04-25 14:42 34.99726 -5.90607 32955 ft 449 kts 222°
2026-04-25 14:42 34.93042 -5.96615 32959 ft 448 kts 222°
2026-04-25 14:43 34.88017 -6.01123 32958 ft 448 kts 222°
2026-04-25 14:43 34.82994 -6.05624 32947 ft 448 kts 222°
2026-04-25 14:44 34.77976 -6.10112 32922 ft 447 kts 222°
2026-04-25 14:44 34.72974 -6.14578 32946 ft 446 kts 221°
2026-04-25 14:45 34.68011 -6.19003 32956 ft 445 kts 221°
2026-04-25 14:45 34.62986 -6.23477 32955 ft 445 kts 221°
2026-04-25 14:46 34.58029 -6.27884 32960 ft 444 kts 221°
2026-04-25 14:46 34.53042 -6.32309 32949 ft 444 kts 221°
2026-04-25 14:47 34.49712 -6.35261 32954 ft 443 kts 221°
2026-04-25 14:47 34.43096 -6.41117 32955 ft 442 kts 221°
2026-04-25 14:48 34.38130 -6.45505 32958 ft 442 kts 221°
2026-04-25 14:48 34.34003 -6.49147 32949 ft 441 kts 221°
2026-04-25 14:49 34.29039 -6.53521 32930 ft 441 kts 221°
2026-04-25 14:49 34.24077 -6.57883 32938 ft 441 kts 221°
2026-04-25 14:50 34.19116 -6.62242 32941 ft 441 kts 221°
2026-04-25 14:50 34.14158 -6.66590 32941 ft 441 kts 221°
2026-04-25 14:51 34.09183 -6.70946 32943 ft 441 kts 221°
2026-04-25 14:51 34.04213 -6.75286 32936 ft 442 kts 220°
2026-04-25 14:52 33.99147 -6.79503 32932 ft 442 kts 219°
2026-04-25 14:52 33.94911 -6.82956 32941 ft 442 kts 219°
2026-04-25 14:53 33.88966 -6.87810 32940 ft 441 kts 218°
2026-04-25 14:53 33.83894 -6.91964 32953 ft 441 kts 218°
2026-04-25 14:54 33.78823 -6.96118 32946 ft 441 kts 218°
2026-04-25 14:54 33.73751 -7.00267 32954 ft 441 kts 218°
2026-04-25 14:55 33.68682 -7.04405 32958 ft 440 kts 218°
2026-04-25 14:55 33.63618 -7.08535 32966 ft 440 kts 218°
2026-04-25 14:56 33.58560 -7.12653 32963 ft 439 kts 218°
2026-04-25 14:56 33.53507 -7.16762 32964 ft 439 kts 218°
2026-04-25 14:57 33.48456 -7.20863 32962 ft 438 kts 218°
2026-04-25 14:57 33.43447 -7.24922 32948 ft 437 kts 217°
2026-04-25 14:58 33.38409 -7.29001 32949 ft 437 kts 217°
2026-04-25 14:58 33.33373 -7.33073 32948 ft 437 kts 217°
2026-04-25 14:59 33.28338 -7.37138 32942 ft 436 kts 217°
2026-04-25 14:59 33.23306 -7.41193 32936 ft 436 kts 217°
2026-04-25 15:00 33.18268 -7.45246 32945 ft 436 kts 217°
2026-04-25 15:00 33.13229 -7.49297 32933 ft 437 kts 217°
2026-04-25 15:01 33.08098 -7.53186 32937 ft 438 kts 214°
2026-04-25 15:01 33.02820 -7.56840 32929 ft 439 kts 213°
2026-04-25 15:02 32.97547 -7.60497 32927 ft 439 kts 213°
2026-04-25 15:02 32.92282 -7.64182 32920 ft 439 kts 213°
2026-04-25 15:03 32.87059 -7.67844 32913 ft 439 kts 213°
2026-04-25 15:03 32.81803 -7.71538 32919 ft 439 kts 213°
2026-04-25 15:04 32.76557 -7.75247 32917 ft 438 kts 213°
2026-04-25 15:04 32.71312 -7.78945 32913 ft 438 kts 213°
2026-04-25 15:05 32.66067 -7.82630 32907 ft 438 kts 213°
2026-04-25 15:06 32.58184 -7.88111 32901 ft 437 kts 213°
2026-04-25 15:06 32.52934 -7.91751 32902 ft 437 kts 213°
2026-04-25 15:07 32.47690 -7.95383 32908 ft 437 kts 213°
2026-04-25 15:07 32.42442 -7.99015 32895 ft 436 kts 213°
2026-04-25 15:08 32.37201 -8.02637 32896 ft 436 kts 213°
2026-04-25 15:08 32.31963 -8.06250 32914 ft 436 kts 212°
2026-04-25 15:09 32.26728 -8.09857 32908 ft 436 kts 212°
2026-04-25 15:09 32.18874 -8.15259 32911 ft 435 kts 212°
2026-04-25 15:10 32.13636 -8.18857 32911 ft 435 kts 212°
2026-04-25 15:11 32.05759 -8.24194 32917 ft 435 kts 211°
2026-04-25 15:11 32.00524 -8.27699 32907 ft 436 kts 211°
2026-04-25 15:12 31.92629 -8.32986 32908 ft 435 kts 211°
2026-04-25 15:12 31.89110 -8.35341 32913 ft 435 kts 211°
2026-04-25 15:13 31.79469 -8.41784 32902 ft 436 kts 211°
2026-04-25 15:14 31.74197 -8.45301 32902 ft 436 kts 211°
2026-04-25 15:14 31.68923 -8.48814 32907 ft 436 kts 211°
2026-04-25 15:15 31.63641 -8.52328 32911 ft 436 kts 211°
2026-04-25 15:15 31.58358 -8.55837 32910 ft 437 kts 211°
2026-04-25 15:16 31.53068 -8.59346 32916 ft 437 kts 211°
2026-04-25 15:16 31.45129 -8.64605 32921 ft 437 kts 211°
2026-04-25 15:17 31.37190 -8.69853 32921 ft 437 kts 211°
2026-04-25 15:18 31.31902 -8.73341 32931 ft 436 kts 210°
2026-04-25 15:18 31.23974 -8.78564 32924 ft 436 kts 210°
2026-04-25 15:19 31.20451 -8.80884 32911 ft 435 kts 210°
2026-04-25 15:19 31.13426 -8.85499 32920 ft 435 kts 210°
2026-04-25 15:20 31.08144 -8.88967 32907 ft 435 kts 210°
2026-04-25 15:20 31.02862 -8.92428 32903 ft 436 kts 210°
2026-04-25 15:21 30.97577 -8.95887 32880 ft 436 kts 210°
2026-04-25 15:21 30.92276 -8.99352 32875 ft 437 kts 210°
2026-04-25 15:22 30.86971 -9.02813 32856 ft 437 kts 210°
2026-04-25 15:22 30.81671 -9.06267 32856 ft 436 kts 210°
2026-04-25 15:23 30.76382 -9.09710 32842 ft 436 kts 209°
2026-04-25 15:23 30.71092 -9.13150 32837 ft 435 kts 209°
2026-04-25 15:24 30.65804 -9.16586 32834 ft 436 kts 209°
2026-04-25 15:24 30.62298 -9.18860 32834 ft 436 kts 210°
2026-04-25 15:25 30.55244 -9.23431 32836 ft 436 kts 210°
2026-04-25 15:25 30.49940 -9.26861 32840 ft 437 kts 210°
2026-04-25 15:26 30.44625 -9.30294 32822 ft 438 kts 210°
2026-04-25 15:26 30.39306 -9.33725 32835 ft 438 kts 210°
2026-04-25 15:27 30.33985 -9.37155 32841 ft 437 kts 210°
2026-04-25 15:28 30.25615 -9.41309 32830 ft 438 kts 201°
2026-04-25 15:28 30.19876 -9.43719 32844 ft 438 kts 201°
2026-04-25 15:29 30.14168 -9.46166 32847 ft 438 kts 201°
2026-04-25 15:29 30.08468 -9.48641 32861 ft 438 kts 201°
2026-04-25 15:30 30.02759 -9.51120 32860 ft 438 kts 201°
2026-04-25 15:30 29.97096 -9.53574 32859 ft 437 kts 201°
2026-04-25 15:31 29.91409 -9.56040 32884 ft 436 kts 201°
2026-04-25 15:31 29.88531 -9.57298 33093 ft 435 kts 201°
2026-04-25 15:31 29.85731 -9.58524 33254 ft 437 kts 201°
2026-04-25 15:31 29.82886 -9.59768 33547 ft 436 kts 201°
2026-04-25 15:32 29.80049 -9.61007 33805 ft 435 kts 201°
2026-04-25 15:32 29.74366 -9.63484 33903 ft 439 kts 201°
2026-04-25 15:33 29.65807 -9.67207 33886 ft 437 kts 201°
2026-04-25 15:33 29.60133 -9.69673 33890 ft 435 kts 202°
2026-04-25 15:34 29.54481 -9.72129 33883 ft 433 kts 202°
2026-04-25 15:34 29.50716 -9.73762 33900 ft 432 kts 202°
2026-04-25 15:35 29.40411 -9.78222 33894 ft 432 kts 202°
2026-04-25 15:36 29.31965 -9.81867 33882 ft 433 kts 202°
2026-04-25 15:36 29.26321 -9.84301 33894 ft 434 kts 202°
2026-04-25 15:37 29.20661 -9.86737 33878 ft 435 kts 202°
2026-04-25 15:37 29.15949 -9.88763 33872 ft 436 kts 203°
2026-04-25 15:38 29.10267 -9.91202 33861 ft 437 kts 202°
2026-04-25 15:38 29.04572 -9.93642 33851 ft 438 kts 202°
2026-04-25 15:39 28.98863 -9.96091 33863 ft 438 kts 203°
2026-04-25 15:39 28.93167 -9.98523 33863 ft 438 kts 202°
2026-04-25 15:40 28.88374 -10.00564 33862 ft 437 kts 202°
2026-04-25 15:40 28.81756 -10.03376 33874 ft 436 kts 203°
2026-04-25 15:41 28.76089 -10.05784 33879 ft 433 kts 203°
2026-04-25 15:41 28.70450 -10.08177 33873 ft 432 kts 203°
2026-04-25 15:42 28.64835 -10.10556 33875 ft 430 kts 204°
2026-04-25 15:42 28.59238 -10.12927 33858 ft 429 kts 203°
2026-04-25 15:43 28.53648 -10.15290 33864 ft 428 kts 203°
2026-04-25 15:43 28.48058 -10.17653 33866 ft 429 kts 203°
2026-04-25 15:44 28.42457 -10.20017 33868 ft 430 kts 203°
2026-04-25 15:44 28.36837 -10.22383 33865 ft 432 kts 203°
2026-04-25 15:45 28.31195 -10.24755 33864 ft 433 kts 204°
2026-04-25 15:45 28.26497 -10.26731 33849 ft 433 kts 204°
2026-04-25 15:46 28.19891 -10.29507 33862 ft 433 kts 204°
2026-04-25 15:46 28.14234 -10.31881 33861 ft 433 kts 204°
2026-04-25 15:47 28.08585 -10.34247 33856 ft 433 kts 204°
2026-04-25 15:47 28.02943 -10.36606 33858 ft 432 kts 204°
2026-04-25 15:48 27.97316 -10.38957 33847 ft 431 kts 204°
2026-04-25 15:48 27.91686 -10.41307 33853 ft 431 kts 204°
2026-04-25 15:49 27.86096 -10.43640 33869 ft 431 kts 204°
2026-04-25 15:49 27.80458 -10.45989 33869 ft 432 kts 204°
2026-04-25 15:50 27.74806 -10.48339 33865 ft 434 kts 204°
2026-04-25 15:50 27.69139 -10.50693 33863 ft 435 kts 204°
2026-04-25 15:51 27.64380 -10.52683 33843 ft 435 kts 205°
2026-04-25 15:51 27.57806 -10.55525 33857 ft 436 kts 206°
2026-04-25 15:52 27.52142 -10.57981 33854 ft 437 kts 206°
2026-04-25 15:52 27.46456 -10.60434 33868 ft 438 kts 206°
2026-04-25 15:53 27.40762 -10.62881 33861 ft 439 kts 206°
2026-04-25 15:53 27.35055 -10.65330 33864 ft 439 kts 206°
2026-04-25 15:54 27.29334 -10.67781 33857 ft 440 kts 206°
2026-04-25 15:54 27.23614 -10.70230 33857 ft 440 kts 206°
2026-04-25 15:55 27.17894 -10.72675 33858 ft 440 kts 206°
2026-04-25 15:55 27.12179 -10.75117 33863 ft 439 kts 206°
2026-04-25 15:56 27.06475 -10.77551 33865 ft 438 kts 206°
2026-04-25 15:56 27.00784 -10.79976 33861 ft 437 kts 207°
2026-04-25 15:57 26.95100 -10.82396 33868 ft 437 kts 207°
2026-04-25 15:57 26.89420 -10.84812 33865 ft 436 kts 207°
2026-04-25 15:58 26.83741 -10.87225 33871 ft 436 kts 207°
2026-04-25 15:58 26.78064 -10.89635 33871 ft 437 kts 206°
2026-04-25 15:59 26.72382 -10.92044 33868 ft 437 kts 207°
2026-04-25 15:59 26.66698 -10.94450 33857 ft 437 kts 208°
2026-04-25 16:00 26.62929 -10.96045 33868 ft 437 kts 208°
2026-04-25 16:00 26.55314 -10.99265 33881 ft 438 kts 208°
2026-04-25 16:01 26.49609 -11.01674 33882 ft 439 kts 208°
2026-04-25 16:01 26.43933 -11.04067 33851 ft 439 kts 208°
2026-04-25 16:02 26.38218 -11.06468 33868 ft 439 kts 208°
2026-04-25 16:02 26.32505 -11.08866 33880 ft 439 kts 208°
2026-04-25 16:03 26.26788 -11.11277 33889 ft 439 kts 208°
2026-04-25 16:03 26.21066 -11.13683 33883 ft 440 kts 208°
2026-04-25 16:04 26.15344 -11.16084 33886 ft 439 kts 208°
2026-04-25 16:04 26.09626 -11.18480 33882 ft 439 kts 209°
2026-04-25 16:05 26.03896 -11.20878 33880 ft 440 kts 209°
2026-04-25 16:06 25.95217 -11.24512 33886 ft 447 kts 209°
2026-04-25 16:06 25.89379 -11.26947 33880 ft 449 kts 209°
2026-04-25 16:07 25.83524 -11.29387 33881 ft 450 kts 209°
2026-04-25 16:07 25.77671 -11.31823 33874 ft 448 kts 210°
2026-04-25 16:08 25.71834 -11.34251 33875 ft 447 kts 210°
2026-04-25 16:08 25.66059 -11.36651 33880 ft 446 kts 210°
2026-04-25 16:09 25.60253 -11.39062 33883 ft 445 kts 210°
2026-04-25 16:09 25.54466 -11.41463 33882 ft 444 kts 210°
2026-04-25 16:10 25.48685 -11.43858 33852 ft 443 kts 210°
2026-04-25 16:10 25.42920 -11.46245 33869 ft 442 kts 210°
2026-04-25 16:11 25.37158 -11.48627 33878 ft 442 kts 210°
2026-04-25 16:11 25.31391 -11.51009 33877 ft 443 kts 210°
2026-04-25 16:12 25.25620 -11.53389 33875 ft 443 kts 210°
2026-04-25 16:12 25.19833 -11.55756 33868 ft 445 kts 209°
2026-04-25 16:13 25.14017 -11.57971 33866 ft 445 kts 208°
2026-04-25 16:13 25.08144 -11.60161 33866 ft 446 kts 208°
2026-04-25 16:14 25.02267 -11.62361 33864 ft 446 kts 209°
2026-04-25 16:14 24.96396 -11.64570 33866 ft 446 kts 209°
2026-04-25 16:15 24.90529 -11.66780 33862 ft 446 kts 209°
2026-04-25 16:15 24.84658 -11.68989 33850 ft 445 kts 209°
2026-04-25 16:16 24.78794 -11.71192 33851 ft 445 kts 209°
2026-04-25 16:16 24.72936 -11.73392 33860 ft 444 kts 209°
2026-04-25 16:17 24.67087 -11.75586 33862 ft 444 kts 209°
2026-04-25 16:17 24.61235 -11.77780 33862 ft 444 kts 209°
2026-04-25 16:18 24.55386 -11.79969 33856 ft 444 kts 209°
2026-04-25 16:18 24.49543 -11.82154 33858 ft 443 kts 209°
2026-04-25 16:19 24.43700 -11.84338 33858 ft 444 kts 209°
2026-04-25 16:19 24.37857 -11.86519 33861 ft 444 kts 209°
2026-04-25 16:20 24.29080 -11.89791 33862 ft 445 kts 209°
2026-04-25 16:21 24.20276 -11.93069 33862 ft 446 kts 209°
2026-04-25 16:21 24.14404 -11.95252 33858 ft 446 kts 209°
2026-04-25 16:22 24.08526 -11.97435 33862 ft 446 kts 209°
2026-04-25 16:22 24.02644 -11.99617 33856 ft 446 kts 209°
2026-04-25 16:23 23.96758 -12.01799 33847 ft 446 kts 209°
2026-04-25 16:23 23.90878 -12.03976 33812 ft 446 kts 210°
2026-04-25 16:24 23.85011 -12.06145 33850 ft 445 kts 210°
2026-04-25 16:24 23.79154 -12.08310 33861 ft 444 kts 210°
2026-04-25 16:25 23.73306 -12.10470 33859 ft 444 kts 210°
2026-04-25 16:25 23.68443 -12.12264 33861 ft 444 kts 210°
2026-04-25 16:26 23.62598 -12.14417 33862 ft 443 kts 210°
2026-04-25 16:26 23.56754 -12.16568 33832 ft 443 kts 210°
2026-04-25 16:27 23.50926 -12.18710 33850 ft 442 kts 210°
2026-04-25 16:27 23.45102 -12.20852 33861 ft 442 kts 210°
2026-04-25 16:28 23.39282 -12.22997 33866 ft 442 kts 210°
2026-04-25 16:28 23.33454 -12.25146 33859 ft 442 kts 210°
2026-04-25 16:29 23.27628 -12.27288 33860 ft 442 kts 210°
2026-04-25 16:29 23.21798 -12.29428 33853 ft 441 kts 210°
2026-04-25 16:30 23.15976 -12.31563 33856 ft 442 kts 210°
2026-04-25 16:30 23.10156 -12.33696 33862 ft 442 kts 210°
2026-04-25 16:31 23.04330 -12.35829 33857 ft 442 kts 210°
2026-04-25 16:31 22.98505 -12.37959 33858 ft 442 kts 210°
2026-04-25 16:32 22.92683 -12.40086 33828 ft 442 kts 209°
2026-04-25 16:32 22.86864 -12.42209 33846 ft 441 kts 210°
2026-04-25 16:33 22.81050 -12.44328 33857 ft 441 kts 210°
2026-04-25 16:33 22.75256 -12.46480 33853 ft 436 kts 213°
2026-04-25 16:34 22.69797 -12.49187 33855 ft 430 kts 217°
2026-04-25 16:34 22.64414 -12.52031 33854 ft 430 kts 217°
2026-04-25 16:35 22.59026 -12.54854 33839 ft 430 kts 216°
2026-04-25 16:35 22.53625 -12.57644 33847 ft 430 kts 216°
2026-04-25 16:36 22.48212 -12.60420 33851 ft 431 kts 216°
2026-04-25 16:36 22.42794 -12.63191 33847 ft 431 kts 216°
2026-04-25 16:37 22.37377 -12.65959 33844 ft 431 kts 216°
2026-04-25 16:37 22.31960 -12.68725 33842 ft 431 kts 216°
2026-04-25 16:38 22.26569 -12.71476 33812 ft 431 kts 216°
2026-04-25 16:38 22.21148 -12.74240 33820 ft 431 kts 216°
2026-04-25 16:39 22.15717 -12.77007 33844 ft 432 kts 216°
2026-04-25 16:39 22.10282 -12.79773 33833 ft 432 kts 216°
2026-04-25 16:40 22.04841 -12.82539 33828 ft 433 kts 216°
2026-04-25 16:40 21.99396 -12.85306 33833 ft 433 kts 216°
2026-04-25 16:41 21.93947 -12.88071 33793 ft 433 kts 216°
2026-04-25 16:41 21.85782 -12.92212 33832 ft 433 kts 216°
2026-04-25 16:42 21.80332 -12.94973 33828 ft 433 kts 216°
2026-04-25 16:42 21.74875 -12.97735 33832 ft 433 kts 216°
2026-04-25 16:43 21.69419 -13.00495 33830 ft 434 kts 216°
2026-04-25 16:43 21.63953 -13.03256 33828 ft 434 kts 216°
2026-04-25 16:44 21.58483 -13.06018 33819 ft 434 kts 215°
2026-04-25 16:44 21.53007 -13.08781 33814 ft 435 kts 215°
2026-04-25 16:45 21.47524 -13.11544 33821 ft 435 kts 215°
2026-04-25 16:45 21.42036 -13.14308 33816 ft 436 kts 215°
2026-04-25 16:46 21.36539 -13.17074 33819 ft 437 kts 215°
2026-04-25 16:46 21.32858 -13.18924 33815 ft 437 kts 215°
2026-04-25 16:47 21.25527 -13.22607 33801 ft 437 kts 214°
2026-04-25 16:47 21.20020 -13.25371 33808 ft 437 kts 214°
2026-04-25 16:48 21.14510 -13.28134 33812 ft 437 kts 214°
2026-04-25 16:48 21.09037 -13.30877 33811 ft 437 kts 214°
2026-04-25 16:49 21.03484 -13.33657 33809 ft 438 kts 214°
2026-04-25 16:49 20.98006 -13.36397 33806 ft 437 kts 214°
2026-04-25 16:50 20.92496 -13.39151 33805 ft 437 kts 214°
2026-04-25 16:50 20.86990 -13.41901 33803 ft 437 kts 214°
2026-04-25 16:51 20.81484 -13.44648 33802 ft 436 kts 214°
2026-04-25 16:51 20.77808 -13.46481 33803 ft 436 kts 214°
2026-04-25 16:52 20.70485 -13.50131 33785 ft 436 kts 214°
2026-04-25 16:52 20.64990 -13.52866 33796 ft 436 kts 214°
2026-04-25 16:53 20.56748 -13.56966 33785 ft 436 kts 214°
2026-04-25 16:54 20.51247 -13.59699 33802 ft 436 kts 214°
2026-04-25 16:54 20.45738 -13.62434 33793 ft 437 kts 214°
2026-04-25 16:55 20.40214 -13.65174 33796 ft 438 kts 214°
2026-04-25 16:55 20.34680 -13.67917 33793 ft 439 kts 214°
2026-04-25 16:56 20.29148 -13.70656 33786 ft 439 kts 214°
2026-04-25 16:56 20.23603 -13.73400 33771 ft 439 kts 214°
2026-04-25 16:57 20.18065 -13.76138 33780 ft 439 kts 213°
2026-04-25 16:57 20.12520 -13.78877 33786 ft 439 kts 213°
2026-04-25 16:58 20.07007 -13.81599 33783 ft 440 kts 213°
2026-04-25 16:58 20.01452 -13.84339 33781 ft 440 kts 213°
2026-04-25 16:59 19.95894 -13.87077 33775 ft 440 kts 213°
2026-04-25 16:59 19.90342 -13.89810 33761 ft 440 kts 213°
2026-04-25 17:00 19.84792 -13.92540 33774 ft 439 kts 213°
2026-04-25 17:00 19.79240 -13.95269 33778 ft 439 kts 213°
2026-04-25 17:01 19.73728 -13.98051 33773 ft 436 kts 216°
2026-04-25 17:01 19.68471 -14.01203 33774 ft 433 kts 219°
2026-04-25 17:02 19.63279 -14.04444 33774 ft 433 kts 218°
2026-04-25 17:02 19.58069 -14.07655 33785 ft 433 kts 218°
2026-04-25 17:03 19.52841 -14.10837 33770 ft 433 kts 218°
2026-04-25 17:03 19.47599 -14.14009 33768 ft 434 kts 218°
2026-04-25 17:04 19.42352 -14.17181 33780 ft 435 kts 218°
2026-04-25 17:04 19.37130 -14.20336 33772 ft 435 kts 218°
2026-04-25 17:05 19.31830 -14.23536 33761 ft 436 kts 217°
2026-04-25 17:05 19.23956 -14.28285 33770 ft 436 kts 217°
2026-04-25 17:06 19.18676 -14.31468 33760 ft 437 kts 217°
2026-04-25 17:06 19.13396 -14.34647 33769 ft 437 kts 217°
2026-04-25 17:07 19.08109 -14.37830 33761 ft 438 kts 217°
2026-04-25 17:07 19.02808 -14.41017 33761 ft 438 kts 217°
2026-04-25 17:08 18.97509 -14.44201 33762 ft 439 kts 217°
2026-04-25 17:08 18.92202 -14.47387 33762 ft 439 kts 217°
2026-04-25 17:09 18.86894 -14.50572 33747 ft 439 kts 217°
2026-04-25 17:09 18.81594 -14.53750 33759 ft 439 kts 217°
2026-04-25 17:10 18.76281 -14.56933 33761 ft 439 kts 217°
2026-04-25 17:10 18.70971 -14.60112 33764 ft 439 kts 217°
2026-04-25 17:11 18.65656 -14.63292 33760 ft 439 kts 217°
2026-04-25 17:11 18.60337 -14.66471 33765 ft 439 kts 217°
2026-04-25 17:12 18.55019 -14.69648 33761 ft 439 kts 217°
2026-04-25 17:12 18.49700 -14.72824 33754 ft 439 kts 216°
2026-04-25 17:13 18.46180 -14.74924 33761 ft 439 kts 216°
2026-04-25 17:13 18.39967 -14.78628 33773 ft 440 kts 216°
2026-04-25 17:14 18.34635 -14.81804 33773 ft 440 kts 216°
2026-04-25 17:14 18.29304 -14.84978 33766 ft 441 kts 216°
2026-04-25 17:15 18.23959 -14.88157 33769 ft 441 kts 216°
2026-04-25 17:15 18.18615 -14.91334 33753 ft 441 kts 216°
2026-04-25 17:16 18.13273 -14.94507 33761 ft 442 kts 216°
2026-04-25 17:16 18.07917 -14.97685 33767 ft 442 kts 216°
2026-04-25 17:17 18.02553 -15.00866 33771 ft 443 kts 216°
2026-04-25 17:17 17.97183 -15.04049 33772 ft 443 kts 216°
2026-04-25 17:18 17.91808 -15.07230 33763 ft 444 kts 216°
2026-04-25 17:18 17.86426 -15.10414 33771 ft 444 kts 216°
2026-04-25 17:19 17.81153 -15.13752 33755 ft 439 kts 221°
2026-04-25 17:19 17.76234 -15.17531 33770 ft 438 kts 223°
2026-04-25 17:20 17.71314 -15.21321 33765 ft 439 kts 222°
2026-04-25 17:20 17.66348 -15.25066 33770 ft 440 kts 221°
2026-04-25 17:21 17.61417 -15.28778 33770 ft 440 kts 222°
2026-04-25 17:21 17.56447 -15.32531 33768 ft 440 kts 222°
2026-04-25 17:22 17.52287 -15.35670 33770 ft 440 kts 222°
2026-04-25 17:22 17.46513 -15.40019 33775 ft 440 kts 221°
2026-04-25 17:23 17.41543 -15.43758 33778 ft 440 kts 221°
2026-04-25 17:23 17.36575 -15.47494 33776 ft 439 kts 221°
2026-04-25 17:24 17.31610 -15.51224 33781 ft 439 kts 221°
2026-04-25 17:24 17.26641 -15.54955 33782 ft 439 kts 221°
2026-04-25 17:25 17.21678 -15.58678 33781 ft 439 kts 221°
2026-04-25 17:25 17.16711 -15.62401 33779 ft 439 kts 221°
2026-04-25 17:26 17.11746 -15.66122 33765 ft 439 kts 221°
2026-04-25 17:26 17.06785 -15.69843 33786 ft 439 kts 221°
2026-04-25 17:27 17.01826 -15.73566 33792 ft 440 kts 221°
2026-04-25 17:27 16.97692 -15.76666 33787 ft 440 kts 221°
2026-04-25 17:28 16.91864 -15.81030 33798 ft 441 kts 221°
2026-04-25 17:28 16.86904 -15.84741 33798 ft 442 kts 221°
2026-04-25 17:29 16.81898 -15.88484 33796 ft 443 kts 221°
2026-04-25 17:29 16.76888 -15.92227 33794 ft 443 kts 221°
2026-04-25 17:30 16.71876 -15.95969 33804 ft 443 kts 221°
2026-04-25 17:30 16.66857 -15.99713 33800 ft 444 kts 221°
2026-04-25 17:31 16.61834 -16.03458 33802 ft 444 kts 221°
2026-04-25 17:31 16.56805 -16.07203 33814 ft 444 kts 221°
2026-04-25 17:32 16.51776 -16.10949 33814 ft 445 kts 221°
2026-04-25 17:32 16.46741 -16.14697 33815 ft 445 kts 221°
2026-04-25 17:33 16.41702 -16.18443 33810 ft 445 kts 221°
2026-04-25 17:33 16.36668 -16.22181 33815 ft 445 kts 221°
2026-04-25 17:34 16.31625 -16.25922 33820 ft 445 kts 221°
2026-04-25 17:34 16.26584 -16.29659 33821 ft 445 kts 220°
2026-04-25 17:35 16.21538 -16.33397 33819 ft 445 kts 221°
2026-04-25 17:35 16.16488 -16.37136 33822 ft 446 kts 221°
2026-04-25 17:36 16.11435 -16.40873 33828 ft 446 kts 220°
2026-04-25 17:36 16.08894 -16.42753 33584 ft 449 kts 220°
2026-04-25 17:36 16.06352 -16.44633 33328 ft 448 kts 220°
2026-04-25 17:37 16.03732 -16.46389 33040 ft 453 kts 212°
2026-04-25 17:37 16.00863 -16.47758 32825 ft 455 kts 208°
2026-04-25 17:37 15.97937 -16.49014 32580 ft 456 kts 207°
2026-04-25 17:37 15.94997 -16.50238 32279 ft 453 kts 207°
2026-04-25 17:38 15.92090 -16.51450 31871 ft 448 kts 207°
2026-04-25 17:38 15.90182 -16.52256 31591 ft 445 kts 207°
2026-04-25 17:38 15.86376 -16.53891 31022 ft 440 kts 208°
2026-04-25 17:38 15.83561 -16.55118 30596 ft 437 kts 208°
2026-04-25 17:39 15.80770 -16.56343 30152 ft 435 kts 208°
2026-04-25 17:39 15.77986 -16.57570 29693 ft 433 kts 208°
2026-04-25 17:39 15.75228 -16.58786 29211 ft 430 kts 208°
2026-04-25 17:39 15.72523 -16.59978 28760 ft 426 kts 208°
2026-04-25 17:40 15.69768 -16.61190 28284 ft 422 kts 207°
2026-04-25 17:40 15.67072 -16.62377 27849 ft 419 kts 207°
2026-04-25 17:40 15.64437 -16.63536 27435 ft 415 kts 207°
2026-04-25 17:40 15.61786 -16.64702 27011 ft 412 kts 207°
2026-04-25 17:41 15.59153 -16.65859 26588 ft 409 kts 207°
2026-04-25 17:41 15.56542 -16.67006 26168 ft 407 kts 206°
2026-04-25 17:41 15.53945 -16.68147 25749 ft 404 kts 206°
2026-04-25 17:41 15.51363 -16.69281 25329 ft 402 kts 206°
2026-04-25 17:42 15.48797 -16.70408 24900 ft 400 kts 206°
2026-04-25 17:42 15.46231 -16.71534 24471 ft 399 kts 206°
2026-04-25 17:42 15.43673 -16.72656 24047 ft 398 kts 205°
2026-04-25 17:42 15.41129 -16.73772 23621 ft 397 kts 205°
2026-04-25 17:43 15.38590 -16.74885 23154 ft 395 kts 205°
2026-04-25 17:43 15.36065 -16.75992 22702 ft 393 kts 205°
2026-04-25 17:43 15.33557 -16.77090 22257 ft 390 kts 205°
2026-04-25 17:43 15.31071 -16.78178 21845 ft 386 kts 206°
2026-04-25 17:44 15.28605 -16.79258 21433 ft 383 kts 205°
2026-04-25 17:44 15.26158 -16.80329 21025 ft 380 kts 205°
2026-04-25 17:44 15.23651 -16.81199 20615 ft 380 kts 197°
2026-04-25 17:44 15.21092 -16.81817 20214 ft 378 kts 195°
2026-04-25 17:45 15.18517 -16.82381 19747 ft 378 kts 194°
2026-04-25 17:45 15.17651 -16.82565 19594 ft 377 kts 194°
2026-04-25 17:45 15.13380 -16.83460 18839 ft 376 kts 194°
2026-04-25 17:45 15.10813 -16.83989 18319 ft 377 kts 194°
2026-04-25 17:46 15.08229 -16.84516 17713 ft 379 kts 194°
2026-04-25 17:46 15.05636 -16.85045 17086 ft 381 kts 194°
2026-04-25 17:46 15.03033 -16.85583 16465 ft 381 kts 194°
2026-04-25 17:46 15.00435 -16.86127 15856 ft 381 kts 194°
2026-04-25 17:47 14.97839 -16.86680 15252 ft 381 kts 194°
2026-04-25 17:47 14.95249 -16.87240 14669 ft 380 kts 194°
2026-04-25 17:47 14.92660 -16.87809 14098 ft 379 kts 194°
2026-04-25 17:47 14.90081 -16.88384 13542 ft 377 kts 194°
2026-04-25 17:48 14.85059 -16.89525 12833 ft 361 kts 194°
2026-04-25 17:48 14.82644 -16.90079 12586 ft 351 kts 194°
2026-04-25 17:48 14.80290 -16.90617 12328 ft 342 kts 194°
2026-04-25 17:49 14.78019 -16.91133 12081 ft 335 kts 194°
2026-04-25 17:49 14.75753 -16.91551 11829 ft 328 kts 187°
2026-04-25 17:49 14.73495 -16.91716 11592 ft 322 kts 185°
2026-04-25 17:49 14.71248 -16.91821 11355 ft 316 kts 183°
2026-04-25 17:50 14.69103 -16.91911 11190 ft 308 kts 185°
2026-04-25 17:50 14.67009 -16.91980 11123 ft 296 kts 184°
2026-04-25 17:50 14.64962 -16.92054 10808 ft 295 kts 183°
2026-04-25 17:50 14.62908 -16.92152 10517 ft 293 kts 184°
2026-04-25 17:51 14.60860 -16.92266 10150 ft 294 kts 184°
2026-04-25 17:51 14.58827 -16.92388 9884 ft 292 kts 184°
2026-04-25 17:51 14.56815 -16.92514 9611 ft 289 kts 184°
2026-04-25 17:51 14.54807 -16.92644 9237 ft 290 kts 184°
2026-04-25 17:52 14.52793 -16.92771 8899 ft 289 kts 184°
2026-04-25 17:52 14.52115 -16.92813 8765 ft 290 kts 184°
2026-04-25 17:52 14.48746 -16.93016 8144 ft 292 kts 184°
2026-04-25 17:52 14.46720 -16.93139 7848 ft 291 kts 184°
2026-04-25 17:53 14.44725 -16.93456 7450 ft 291 kts 204°
2026-04-25 17:53 14.42912 -16.94343 7081 ft 287 kts 208°
2026-04-25 17:53 14.41107 -16.95212 6673 ft 286 kts 207°
2026-04-25 17:53 14.39377 -16.96159 6347 ft 278 kts 223°
2026-04-25 17:54 14.38237 -16.97704 5936 ft 269 kts 249°
2026-04-25 17:54 14.37743 -16.99537 5505 ft 263 kts 269°
2026-04-25 17:54 14.37678 -17.01402 4952 ft 259 kts 273°
2026-04-25 17:54 14.37858 -17.03227 4406 ft 254 kts 293°
2026-04-25 17:55 14.38795 -17.04647 4279 ft 231 kts 320°
2026-04-25 17:55 14.39985 -17.05674 4150 ft 218 kts 324°
2026-04-25 17:55 14.41175 -17.06624 3927 ft 217 kts 329°
2026-04-25 17:55 14.42609 -17.07021 3684 ft 213 kts
2026-04-25 17:56 14.44048 -17.07003 3682 ft 203 kts 358°
2026-04-25 17:56 14.45400 -17.07051 3677 ft 189 kts 358°
2026-04-25 17:56 14.46674 -17.07079 3641 ft 180 kts 359°
2026-04-25 17:56 14.47930 -17.07096 3532 ft 184 kts 360°
2026-04-25 17:57 14.49234 -17.07109 3322 ft 188 kts
2026-04-25 17:57 14.50532 -17.07123 3079 ft 183 kts
2026-04-25 17:57 14.51791 -17.07135 2853 ft 179 kts
2026-04-25 17:57 14.52211 -17.07139 2767 ft 178 kts
2026-04-25 17:58 14.54234 -17.07158 2393 ft 173 kts
2026-04-25 17:58 14.55420 -17.07170 2182 ft 169 kts
2026-04-25 17:58 14.56577 -17.07182 1980 ft 164 kts
2026-04-25 17:58 14.57713 -17.07192 1757 ft 161 kts
2026-04-25 17:59 14.58804 -17.07202 1555 ft 153 kts
2026-04-25 17:59 14.59836 -17.07212 1370 ft 150 kts
2026-04-25 17:59 14.60874 -17.07223 1180 ft 151 kts
2026-04-25 17:59 14.61919 -17.07232 997 ft 149 kts
2026-04-25 18:00 14.62941 -17.07241 841 ft 144 kts
2026-04-25 18:00 14.63944 -17.07247 647 ft 145 kts
2026-04-25 18:00 14.64970 -17.07253 463 ft 150 kts 358°
2026-04-25 18:00 14.66013 -17.07273 296 ft 148 kts 359°
2026-04-25 18:01 14.66908 -17.07280 298 ft 101 kts 360°
2026-04-25 18:01 14.67392 -17.07284 293 ft 39 kts 359°
2026-04-25 18:01 14.67628 -17.07268 289 ft 32 kts 11°
2026-04-25 18:01 14.67792 -17.07199 284 ft 20 kts 30°
2026-04-25 18:02 14.67818 -17.07106 286 ft 16 kts 143°
2026-04-25 18:02 14.67712 -17.07098 288 ft 15 kts 178°
2026-04-25 18:02 14.67609 -17.07095 290 ft 14 kts 179°
2026-04-25 18:02 14.67543 -17.07094 290 ft 14 kts 179°
2026-04-25 18:03 14.67447 -17.07094 292 ft 13 kts 178°
2026-04-25 18:03 14.67356 -17.07091 293 ft 13 kts 180°
2026-04-25 18:03 14.67268 -17.07093 294 ft 13 kts 180°
2026-04-25 18:03 14.67181 -17.07092 298 ft 12 kts 179°
2026-04-25 18:04 14.67099 -17.07081 298 ft 12 kts 149°
2026-04-25 18:04 14.67069 -17.07001 291 ft 13 kts 120°
2026-04-25 18:04 14.67022 -17.06930 295 ft 12 kts 91°
2026-04-25 18:04 14.67023 -17.06870 291 ft 3 kts 90°
2026-04-25 18:05 14.67023 -17.06862 291 ft 0 kts 91°
2026-04-25 18:05 14.67023 -17.06861 291 ft 0 kts 91°
2026-04-25 18:07 14.67023 -17.06862 291 ft 0 kts 89°